Location: Rounton
(54.4000°N, 1.3500°W)
Time: 21:49:34
(UTC+01:00)

YAOGAN 20A - Pass Details

Date: 03 July 2022
Orbit: 891 x 1288 km, 63.4° (Epoch: 18 August)

Event Time Altitude Azimuth Distance (km) Brightness Sun altitude
Rises 02:48:53 0° 310° (NW) 3,892 8.3 -9.7°
Reaches altitude 10° 02:51:57 10° 297° (WNW) 2,997 7.5 -9.6°
Maximum altitude 02:57:30 25° 246° (WSW) 2,191 6.3 -9.2°
Drops below altitude 10° 03:03:24 10° 196° (SSW) 3,190 6.9 -8.9°
Enters shadow 03:03:27 10° 196° (SSW) 3,206 6.9 -8.9°
